This is the latest recevied weather packets stored in our database for station/object W7TRD. If no packets are shown the sender has not sent any weather packets the latest 10 day(s).
| Time | Temp. | Humidity | Pressure | Rain* | Wind** | Luminosity | Snow |
|---|---|---|---|---|---|---|---|
| 1777857038 | 31.67° C | 33% | 1007.8 hPa | 0 mm | - | 190 W/m² | - |
| 1777856733 | 32.22° C | 33% | 1007.8 hPa | 0 mm | - | 204 W/m² | - |
| 1777856430 | 32.22° C | 33% | 1007.8 hPa | 0 mm | - | 221 W/m² | - |
| 1777856126 | 32.22° C | 33% | 1007.9 hPa | 0 mm | - | 233 W/m² | - |
| 1777855824 | 32.22° C | 33% | 1007.9 hPa | 0 mm | - | 244 W/m² | - |
| 1777855522 | 32.78° C | 33% | 1008.1 hPa | 0 mm | - | 260 W/m² | - |
| 1777855219 | 32.78° C | 32% | 1007.9 hPa | 0 mm | - | 274 W/m² | - |
| 1777854915 | 32.78° C | 32% | 1008.1 hPa | 0 mm | - | 287 W/m² | - |
| 1777854612 | 32.78° C | 33% | 1007.9 hPa | 0 mm | - | 302 W/m² | - |
| 1777854309 | 32.78° C | 32% | 1007.9 hPa | 0 mm | - | 316 W/m² | - |
| 1777854006 | 32.78° C | 33% | 1008.1 hPa | 0 mm | - | 331 W/m² | - |
| 1777853703 | 32.78° C | 32% | 1008.1 hPa | 0 mm | - | 345 W/m² | - |
| 1777853400 | 32.78° C | 32% | 1007.9 hPa | 0 mm | - | 360 W/m² | - |
| 1777853097 | 33.33° C | 34% | 1008.2 hPa | 0 mm | - | 375 W/m² | - |
| 1777852794 | 33.33° C | 32% | 1008.2 hPa | 0 mm | - | 389 W/m² | - |
| 1777852492 | 32.78° C | 33% | 1008.2 hPa | 0 mm | - | 403 W/m² | - |
| 1777852189 | 33.33° C | 31% | 1008.2 hPa | 0 mm | - | 416 W/m² | - |
| 1777851886 | 33.33° C | 30% | 1008.4 hPa | 0 mm | - | 429 W/m² | - |
| 1777851584 | 33.89° C | 30% | 1008.4 hPa | 0 mm | - | 439 W/m² | - |
| 1777851280 | 33.89° C | 29% | 1008.4 hPa | 0 mm | - | 452 W/m² | - |
| 1777850977 | 33.89° C | 31% | 1008.3 hPa | 0 mm | - | 465 W/m² | - |
| 1777850674 | 33.33° C | 31% | 1008.6 hPa | 0 mm | - | 478 W/m² | - |
| 1777850372 | 33.33° C | 30% | 1008.4 hPa | 0 mm | - | 491 W/m² | - |
| 1777850069 | 33.89° C | 30% | 1008.5 hPa | 0 mm | - | 502 W/m² | - |
| 1777849765 | 33.89° C | 30% | 1008.5 hPa | 0 mm | - | 514 W/m² | - |
* Rain latest hour (hover to see other rain measurements)
** Current wind speed in m/s (hover to see current wind gust speed)